Date String (YYYY-MM-DD hh:mm:ss) UTC,Instrument flags,absolute air pressure of the measurement (hPa),sample flow rate (lpm),inlet stack bypass flow (lpm),air temperature of the measurement (°C),ambient temperature measured by the external sensor (°C),aerosol sample conditioner tube jacket temperature (°C),OPC LED temperature (°C),internal box temperature (°C),relative humidity of the measurement (%),span deviation,mass concentration of particles derived from Lorenz-Mie calculation of OPC scattering (μg/m³),mass concentration of particles derived from Lorenz-Mie calculation of OPC scattering (μg/m³),mass concentration of particles derived from Lorenz-Mie calculation of OPC scattering (μg/m³)
DateTimeUTC,F1_M11,P_M11,Q1_M11,Q2_M11,T1_M11,T2_M11,T3_M11,T4_M11,T5_M11,U1_M11,ZSPAN_M11,X0_M11,X2_M11,X1_M11
2023-10-13 22:00:00,SystemResetWarning,0832.6,5.00,000.00,029.3,028.0,000.0,037.8,030.9,10.0,0000.0,0004.95,0001.59,0001.24
2023-10-13 22:01:00,SystemResetWarning,0832.7,5.00,000.00,029.4,028.0,000.0,037.8,030.9,10.0,0000.0,0005.02,0001.61,0001.25
2023-10-13 22:02:00,SystemResetWarning,0832.7,5.00,000.00,029.4,028.1,000.0,037.8,030.9,10.0,0000.0,0004.96,0001.60,0001.26
2023-10-13 22:03:00,SystemResetWarning,0832.7,5.00,000.00,029.4,028.1,000.0,037.8,031.0,10.0,0000.0,0005.33,0001.63,0001.26
2023-10-13 22:04:00,SystemResetWarning,0832.7,5.00,000.00,029.4,028.1,000.0,037.8,031.0,10.1,0000.0,0005.60,0001.63,0001.25
2023-10-13 22:05:00,SystemResetWarning,0832.7,5.00,000.00,029.4,028.1,000.0,037.8,031.0,10.1,0000.0,0005.44,0001.65,0001.26
2023-10-13 22:06:00,SystemResetWarning,0832.7,5.00,000.00,029.4,028.1,000.0,037.8,030.9,10.0,0000.0,0004.99,0001.66,0001.26
2023-10-13 22:07:00,SystemResetWarning,0832.8,5.00,000.00,029.4,028.1,000.0,037.8,031.0,10.1,0000.0,0005.09,0001.65,0001.26
2023-10-13 22:08:00,SystemResetWarning,0832.8,5.00,000.00,029.4,028.1,000.0,037.8,031.0,10.0,0000.0,0005.21,0001.63,0001.26
2023-10-13 22:09:00,SystemResetWarning,0832.8,5.00,000.00,029.4,028.1,000.0,037.8,031.0,10.0,0000.0,0004.22,0001.63,0001.26
2023-10-13 22:10:00,SystemResetWarning,0832.8,5.00,000.00,029.4,028.1,000.0,037.8,031.0,9.9,0000.0,0003.92,0001.68,0001.27
2023-10-13 22:11:00,SystemResetWarning,0832.8,5.00,000.00,029.4,028.1,000.0,037.8,031.0,10.0,0000.0,0003.97,0001.70,0001.28
2023-10-13 22:12:00,SystemResetWarning,0832.7,5.00,000.00,029.4,028.1,000.0,037.8,031.0,9.9,0000.0,0003.87,0001.69,0001.27
2023-10-13 22:13:00,SystemResetWarning,0832.7,4.99,000.00,029.5,028.1,000.0,037.8,031.0,10.1,0000.0,0005.19,0001.69,0001.27
2023-10-13 22:14:00,SystemResetWarning,0832.7,5.00,000.00,029.5,028.2,000.0,037.9,031.0,10.1,0000.0,0005.41,0001.66,0001.27
2023-10-13 22:15:00,SystemResetWarning,0832.8,4.99,000.00,029.5,028.2,000.0,037.9,031.0,10.0,0000.0,0005.45,0001.64,0001.29
2023-10-13 22:16:00,SystemResetWarning,0832.8,5.00,000.00,029.5,028.2,000.0,037.9,031.0,9.9,0000.0,0006.24,0001.62,0001.29
2023-10-13 22:17:00,SystemResetWarning,0832.8,4.99,000.00,029.5,028.2,000.0,037.9,031.0,9.8,0000.0,0006.97,0001.63,0001.31
2023-10-13 22:18:00,SystemResetWarning,0832.9,5.00,000.00,029.5,028.2,000.0,037.9,031.0,9.9,0000.0,0006.89,0001.64,0001.30
2023-10-13 22:19:00,SystemResetWarning,0832.9,5.00,000.00,029.5,028.2,000.0,037.9,031.0,9.8,0000.0,0006.68,0001.64,0001.29
2023-10-13 22:20:00,SystemResetWarning,0832.9,5.01,000.00,029.5,028.2,000.0,037.9,031.0,9.8,0000.0,0006.80,0001.67,0001.29
2023-10-13 22:21:00,SystemResetWarning,0832.8,5.01,000.00,029.5,028.2,000.0,037.9,031.0,9.9,0000.0,0006.84,0001.64,0001.28
2023-10-13 22:22:00,SystemResetWarning,0832.9,5.01,000.00,029.5,028.2,000.0,037.9,031.1,9.9,0000.0,0007.30,0001.65,0001.27
2023-10-13 22:23:00,SystemResetWarning,0833.0,5.00,000.00,029.5,028.2,000.0,037.9,031.1,9.9,0000.0,0008.51,0001.67,0001.27
2023-10-13 22:24:00,SystemResetWarning,0833.0,4.99,000.00,029.5,028.2,000.0,037.9,031.1,9.9,0000.0,0008.05,0001.69,0001.28
2023-10-13 22:25:00,SystemResetWarning,0833.2,4.99,000.00,029.5,028.2,000.0,037.9,031.1,9.8,0000.0,0007.61,0001.69,0001.28
2023-10-13 22:26:00,SystemResetWarning,0833.1,4.99,000.00,029.5,028.2,000.0,037.9,031.1,9.8,0000.0,0007.44,0001.74,0001.28
2023-10-13 22:27:00,SystemResetWarning,0833.0,5.00,000.00,029.5,028.2,000.0,037.9,031.1,9.9,0000.0,0006.77,0001.76,0001.28
2023-10-13 22:28:00,SystemResetWarning,0832.9,5.00,000.00,029.5,028.1,000.0,037.9,031.0,9.8,0000.0,0005.92,0001.75,0001.27
2023-10-13 22:29:00,SystemResetWarning,0833.0,5.00,000.00,029.5,028.1,000.0,037.9,031.0,9.9,0000.0,0005.54,0001.75,0001.28
2023-10-13 22:30:00,SystemResetWarning,0832.9,5.00,000.00,029.5,028.1,000.0,037.9,031.0,9.9,0000.0,0005.65,0001.75,0001.29
2023-10-13 22:31:00,SystemResetWarning,0833.0,5.01,000.00,029.5,028.1,000.0,037.9,031.0,10.0,0000.0,0007.31,0001.74,0001.29
2023-10-13 22:32:00,SystemResetWarning,0833.2,5.00,000.00,029.5,028.1,000.0,037.9,031.0,9.9,0000.0,0007.37,0001.76,0001.29
2023-10-13 22:33:00,SystemResetWarning,0833.2,5.00,000.00,029.5,028.1,000.0,037.9,031.0,10.0,0000.0,0007.75,0001.75,0001.30
2023-10-13 22:34:00,SystemResetWarning,0833.1,5.00,000.00,029.5,028.2,000.0,037.9,031.0,10.1,0000.0,0006.30,0001.75,0001.31
2023-10-13 22:35:00,SystemResetWarning,0833.0,5.00,000.00,029.5,028.2,000.0,037.9,031.0,10.0,0000.0,0005.95,0001.78,0001.31
2023-10-13 22:36:00,SystemResetWarning,0833.0,5.00,000.00,029.5,028.2,000.0,037.9,031.1,10.0,0000.0,0007.08,0001.79,0001.31
2023-10-13 22:37:00,SystemResetWarning,0833.0,5.00,000.00,029.5,028.2,000.0,037.9,031.1,9.9,0000.0,0007.29,0001.77,0001.31
2023-10-13 22:38:00,SystemResetWarning,0833.0,5.00,000.00,029.5,028.2,000.0,038.0,031.1,10.0,0000.0,0007.41,0001.76,0001.30
2023-10-13 22:39:00,SystemResetWarning,0833.1,4.99,000.00,029.5,028.2,000.0,038.0,031.1,9.9,0000.0,0007.53,0001.79,0001.30
2023-10-13 22:40:00,SystemResetWarning,0833.1,5.00,000.00,029.5,028.3,000.0,038.0,031.1,9.9,0000.0,0007.53,0001.80,0001.30
2023-10-13 22:41:00,SystemResetWarning,0833.0,5.00,000.00,029.5,028.3,000.0,038.0,031.1,9.8,0000.0,0007.48,0001.77,0001.29
2023-10-13 22:42:00,SystemResetWarning,0833.0,5.00,000.00,029.5,028.3,000.0,038.0,031.1,9.9,0000.0,0005.86,0001.76,0001.30
2023-10-13 22:43:00,SystemResetWarning,0833.1,5.00,000.00,029.5,028.3,000.0,038.0,031.1,9.8,0000.0,0005.83,0001.76,0001.30
2023-10-13 22:44:00,SystemResetWarning,0833.2,4.99,000.00,029.6,028.3,000.0,038.0,031.1,9.9,0000.0,0004.69,0001.77,0001.31
2023-10-13 22:45:00,SystemResetWarning,0833.1,5.00,000.00,029.6,028.3,000.0,038.0,031.1,9.9,0000.0,0004.72,0001.78,0001.32
2023-10-13 22:46:00,SystemResetWarning,0833.1,5.00,000.00,029.6,028.3,000.0,038.0,031.2,10.0,0000.0,0004.96,0001.80,0001.33
2023-10-13 22:47:00,SystemResetWarning,0833.2,5.00,000.00,029.6,028.3,000.0,038.0,031.2,9.9,0000.0,0003.89,0001.78,0001.33
2023-10-13 22:48:00,SystemResetWarning,0833.1,5.00,000.00,029.6,028.3,000.0,038.0,031.2,9.9,0000.0,0003.51,0001.76,0001.34
2023-10-13 22:49:00,SystemResetWarning,0833.1,5.01,000.00,029.6,028.3,000.0,038.0,031.2,9.8,0000.0,0004.33,0001.76,0001.35
2023-10-13 22:50:00,SystemResetWarning,0833.1,5.01,000.00,029.6,028.3,000.0,038.0,031.1,9.8,0000.0,0006.18,0001.71,0001.35
2023-10-13 22:51:00,SystemResetWarning,0833.1,4.99,000.00,029.6,028.3,000.0,038.0,031.1,9.8,0000.0,0006.24,0001.72,0001.35
2023-10-13 22:52:00,SystemResetWarning,0833.1,4.99,000.00,029.6,028.3,000.0,038.0,031.1,9.9,0000.0,0006.37,0001.77,0001.35
2023-10-13 22:53:00,SystemResetWarning,0833.1,5.00,000.00,029.6,028.3,000.0,038.0,031.1,9.9,0000.0,0006.38,0001.77,0001.34
2023-10-13 22:54:00,SystemResetWarning,0833.1,5.00,000.00,029.6,028.3,000.0,038.0,031.1,9.9,0000.0,0006.47,0001.79,0001.33
2023-10-13 22:55:00,SystemResetWarning,0833.2,5.01,000.00,029.6,028.3,000.0,038.0,031.1,9.9,0000.0,0006.57,0001.82,0001.33
2023-10-13 22:56:00,SystemResetWarning,0833.2,5.01,000.00,029.6,028.3,000.0,038.0,031.1,9.8,0000.0,0006.50,0001.78,0001.32
2023-10-13 22:57:00,SystemResetWarning,0833.2,5.00,000.00,029.6,028.3,000.0,038.0,031.1,9.8,0000.0,0006.49,0001.78,0001.31
2023-10-13 22:58:00,SystemResetWarning,0833.2,4.99,000.00,029.6,028.3,000.0,038.0,031.1,9.8,0000.0,0006.64,0001.77,0001.29
2023-10-13 22:59:00,SystemResetWarning,0833.2,4.99,000.00,029.6,028.3,000.0,038.0,031.1,9.8,0000.0,0007.43,0001.82,0001.30
